OBJECT AW, 59142

Orbit data source: Space-Track

You're viewing an Uncataloged Satellite

Recently launched and/or uncataloged satellites may have evolving metadata. Metadata may include but not limited to: Owner, Maufacturer, Bus, Motor, and Mission.

OBJECT AW, 59142 is a satellite in SSO that was launched on Mon, 04 Mar 2024 UTC via an FALCON 9 launch vehicle from the Air Force Western Test Range (AFWTR). Unknown objects in Earth's orbit typically refer to objects detected orbiting the Earth but have not yet been identified or cataloged. These objects could be anything from previously untracked satellites, spent rocket stages, debris from satellite collisions, or even natural meteoroids temporarily captured by Earth's gravity.

Not visible in the next 10 days
Identifier
59142, 2024-043AW
Orbit
SSO
Country
Flag of TBDTBD
Related business
None
Manufacturer
Unknown
Mission
Operational Commercial Weather
Bus & Motor
Unknown
Mass
Unknown
Launch date (UTC)
2024-03-04 (2 years ago)
Launch vehicle
FALCON 9
Launch site
Air Force Western Test Range (AFWTR)
Object type
Unknown
Shape & HBR
Box, 0.1 m
Radar Cross Section
0.015 m², Small (<0.1 m²)

Expand to show TLE details & history
Last TLE update: 1 day ago

TLE from 1 day ago
0 OBJECT AW
1 59142U 24043AW  26033.34653348  .00068240  00000-0  73059-3 0  9991
2 59142  97.5308 182.0602 0005272 298.4092  61.6635 15.63628487107302
Epoch: 2026-02-02T08:19Z
TLE epoch observation values (Epoch: 2026-02-02T08:19:00.492Z)
Latitude
Longitude
-75.23498°
Altitude
378.642 km
Speed
7.684 km/s
True Right ascension
12h 08m 14s
True Declination
0° 00' 00"
Sunlit
Object was in full shadow at epoch
Visualization orbit readout
Latitude
Unknown
Longitude
Unknown
Altitude
Unknown
Speed
Unknown
Apparent Right ascension
Unknown
Apparent Declination
Unknown
Sunlit
N/A
Visualization observer readout
Local Sidereal Time
17:07:52
Azimuth
Unknown
Elevation
Unknown
Doppler factor
Unknown
Orbital elements
Apogee altitude
377.659 km
Perigee altitude
370.54 km
Semi-major axis
6,752.237 km
Eccentricity
0.00053
Inclination
97.5308°
RAAN
182.0602°
Arg. of periapsis
298.4092°
True anomaly
61.71669°
Mean anomaly
61.6635°
Eccentric anomaly
61.69009°
Mean motion
3.91176 °/min
Orbital period
92.03 mins
BSTAR
0.00073059
Loading maneuver chart data...
Computing Atmospheric mass density...
Loading historical data...
Loading historical data...
Loading historical data...
Loading historical data...
Loading historical data...
Loading historical data...
Loading historical data...

Documentation

Showing up to 5 results
|